Simultaneous Nadir Overpasses (SNOs) Predictions

Prediction of SNOs between GOES-14 and NPP Satellite Orbit:

Table of predicted SNOs for the next 14.0 days since TLE Epoch: 10/21/2023
Index Date Time (GOES-14) GOES-14 Lat,Lon NPP Lat,Lon Distance(km) Time Diff (sec)
1 10/21/2023 08:39:53 0.17,-108.62 0.06,-108.20 47.98 80
2 10/23/2023 20:40:26 -0.15,-108.54 -0.25,-108.98 49.58 80
3 10/24/2023 20:24:21 -0.17,-108.54 0.74,-104.45 466.79 80
4 10/26/2023 08:43:31 0.14,-108.61 0.40,-109.73 127.46 80
5 10/27/2023 08:27:26 0.15,-108.62 -0.60,-105.20 389.11 80
6 10/28/2023 20:46:44 -0.12,-108.55 -0.56,-110.51 224.11 80
7 10/29/2023 20:30:39 -0.14,-108.55 0.44,-105.98 292.41 80
8 10/31/2023 08:49:48 0.11,-108.62 0.69,-111.27 301.95 80
9 11/01/2023 08:33:44 0.12,-108.62 -0.32,-106.74 214.43 80
10 11/02/2023 20:53:00 -0.09,-108.54 -0.88,-112.04 399.12 80
11 11/03/2023 20:36:56 -0.11,-108.54 0.13,-107.51 117.22 80
